time, Switch, Flow(0), Analog(2)
yyyy/mm/dd HH:MM:SS.fff, True=FILTERED|False=TOTAL, L/min, V
2023/07/06 16:00:05.357, True, 0.995, 0.152056
2023/07/06 16:00:05.861, True, 0.664, 0.152743
2023/07/06 16:00:06.357, True, 0.673, 0.150912
2023/07/06 16:00:06.861, True, 0.995, 0.153506
2023/07/06 16:00:07.365, True, 0.663, 0.151369
2023/07/06 16:00:07.869, True, 0.664, 0.152743
2023/07/06 16:00:08.364, True, 1.012, 0.152132
2023/07/06 16:00:08.868, True, 0.662, 0.149310
2023/07/06 16:00:09.373, True, 0.664, 0.150149
2023/07/06 16:00:09.869, True, 1.010, 0.152132
2023/07/06 16:00:10.372, True, 0.663, 0.151751
2023/07/06 16:00:10.869, True, 0.674, 0.152972
2023/07/06 16:00:11.373, True, 0.996, 0.152590
2023/07/06 16:00:11.876, True, 0.662, 0.154192
2023/07/06 16:00:12.372, True, 0.674, 0.153887
2023/07/06 16:00:12.877, True, 0.664, 0.153201
2023/07/06 16:00:13.380, True, 0.994, 0.152667
2023/07/06 16:00:13.877, True, 0.674, 0.148775
2023/07/06 16:00:14.381, True, 0.664, 0.152056
2023/07/06 16:00:14.884, True, 0.662, 0.153353
2023/07/06 16:00:15.381, True, 1.011, 0.151446
2023/07/06 16:00:15.885, True, 0.663, 0.152438
2023/07/06 16:00:16.389, True, 0.664, 0.151369
2023/07/06 16:00:16.885, True, 0.673, 0.153429
2023/07/06 16:00:17.389, True, 0.664, 0.151980
2023/07/06 16:00:17.885, True, 1.010, 0.152590
2023/07/06 16:00:18.388, True, 0.663, 0.150149
2023/07/06 16:00:18.893, True, 0.664, 0.152819
2023/07/06 16:00:19.389, True, 0.674, 0.150988
2023/07/06 16:00:19.892, True, 0.995, 0.153048
2023/07/06 16:00:20.396, True, 0.663, 0.151598
2023/07/06 16:00:20.893, True, 0.674, 0.152056
2023/07/06 16:00:21.397, True, 0.663, 0.151751
2023/07/06 16:00:21.900, True, 0.995, 0.151141
2023/07/06 16:00:22.405, True, 0.663, 0.152209
2023/07/06 16:00:22.901, True, 0.674, 0.150454
2023/07/06 16:00:23.404, True, 0.664, 0.151827
2023/07/06 16:00:23.900, True, 1.010, 0.152209
2023/07/06 16:00:24.405, True, 0.663, 0.152438
2023/07/06 16:00:24.909, True, 0.663, 0.152209
2023/07/06 16:00:25.413, True, 0.997, 0.152361
2023/07/06 16:00:25.908, True, 0.673, 0.152590
2023/07/06 16:00:26.413, True, 0.663, 0.153124
2023/07/06 16:00:26.917, True, 0.663, 0.154116
2023/07/06 16:00:27.420, True, 0.664, 0.154421
2023/07/06 16:00:27.917, True, 1.011, 0.152438
2023/07/06 16:00:28.421, True, 0.663, 0.153353
2023/07/06 16:00:28.925, True, 0.663, 0.153048
2023/07/06 16:00:29.421, True, 0.674, 0.152590
2023/07/06 16:00:29.925, True, 0.663, 0.152209
2023/07/06 16:00:30.429, True, 0.994, 0.151827
2023/07/06 16:00:30.925, True, 0.674, 0.150835
2023/07/06 16:00:31.428, True, 0.664, 0.149920
2023/07/06 16:00:31.933, True, 0.662, 0.153811
2023/07/06 16:00:32.429, True, 0.675, 0.153506
2023/07/06 16:00:32.933, True, 0.664, 0.148928
2023/07/06 16:00:33.437, True, 0.993, 0.152361
2023/07/06 16:00:33.941, True, 0.663, 0.151064
2023/07/06 16:00:34.437, True, 0.674, 0.150454
2023/07/06 16:00:34.941, True, 0.663, 0.151980
2023/07/06 16:00:35.445, True, 0.663, 0.152895
2023/07/06 16:00:35.949, True, 0.996, 0.152667
2023/07/06 16:00:36.445, True, 0.673, 0.152743
2023/07/06 16:00:36.949, True, 0.664, 0.151675
2023/07/06 16:00:37.445, True, 0.674, 0.151980
2023/07/06 16:00:37.949, True, 0.662, 0.152972
2023/07/06 16:00:38.452, True, 0.995, 0.153048
2023/07/06 16:00:38.949, True, 0.674, 0.151904
2023/07/06 16:00:39.453, True, 0.663, 0.153277
2023/07/06 16:00:39.957, True, 0.663, 0.153429
2023/07/06 16:00:40.461, True, 0.663, 0.153582
2023/07/06 16:00:40.957, True, 0.674, 0.151904
2023/07/06 16:00:41.461, True, 0.995, 0.150454
2023/07/06 16:00:41.957, True, 0.673, 0.150225
2023/07/06 16:00:42.461, True, 0.663, 0.152972
2023/07/06 16:00:42.964, True, 0.664, 0.154040
2023/07/06 16:00:43.461, True, 1.011, 0.151293
2023/07/06 16:00:43.964, True, 0.663, 0.151293
2023/07/06 16:00:44.469, True, 0.663, 0.152361
2023/07/06 16:00:44.973, True, 0.663, 0.152132
2023/07/06 16:00:45.469, True, 0.674, 0.152056
2023/07/06 16:00:45.973, True, 0.995, 0.151446
2023/07/06 16:00:46.477, True, 0.663, 0.151827
2023/07/06 16:00:46.973, True, 0.674, 0.154116
2023/07/06 16:00:47.477, True, 0.663, 0.152590
2023/07/06 16:00:47.981, True, 0.995, 0.152132
2023/07/06 16:00:48.477, True, 0.674, 0.153201
2023/07/06 16:00:48.981, True, 0.663, 0.153124
2023/07/06 16:00:49.485, True, 0.663, 0.150149
2023/07/06 16:00:49.989, True, 0.663, 0.152361
2023/07/06 16:00:50.485, True, 1.013, 0.153964
2023/07/06 16:00:50.989, True, 0.662, 0.153277
2023/07/06 16:00:51.492, True, 0.663, 0.151141
2023/07/06 16:00:51.989, True, 1.011, 0.153506
2023/07/06 16:00:52.493, True, 0.663, 0.153582
2023/07/06 16:00:52.997, True, 0.663, 0.153353
2023/07/06 16:00:53.493, True, 0.674, 0.154879
2023/07/06 16:00:53.997, True, 0.996, 0.150530
2023/07/06 16:00:54.501, True, 0.662, 0.150072
2023/07/06 16:00:54.997, True, 0.674, 0.151751
2023/07/06 16:00:55.501, True, 0.663, 0.151751
2023/07/06 16:00:55.997, True, 1.011, 0.151904
2023/07/06 16:00:56.501, True, 0.663, 0.151675
2023/07/06 16:00:57.005, True, 0.663, 0.151827
2023/07/06 16:00:57.509, True, 0.664, 0.151904
2023/07/06 16:00:58.005, True, 1.010, 0.152895
2023/07/06 16:00:58.509, True, 0.663, 0.151675
2023/07/06 16:00:59.013, True, 0.663, 0.151141
2023/07/06 16:00:59.509, True, 0.674, 0.151369
2023/07/06 16:01:00.012, True, 0.994, 0.152285
2023/07/06 16:01:00.516, True, 0.663, 0.151598
2023/07/06 16:01:01.012, True, 0.674, 0.152667
2023/07/06 16:01:01.517, True, 0.663, 0.152438
2023/07/06 16:01:02.021, True, 0.995, 0.153201
2023/07/06 16:01:02.517, True, 0.674, 0.152972
2023/07/06 16:01:03.021, True, 0.663, 0.151904
2023/07/06 16:01:03.525, True, 0.995, 0.150607
2023/07/06 16:01:04.021, True, 0.675, 0.151980
2023/07/06 16:01:04.525, True, 0.662, 0.153277
2023/07/06 16:01:05.029, True, 0.995, 0.152285
2023/07/06 16:01:05.525, True, 0.674, 0.152361
2023/07/06 16:01:06.029, True, 0.663, 0.152209
2023/07/06 16:01:06.532, True, 0.663, 0.152209
2023/07/06 16:01:07.029, True, 0.674, 0.151217
2023/07/06 16:01:07.533, True, 0.663, 0.152590
2023/07/06 16:01:08.029, True, 1.011, 0.153811
2023/07/06 16:01:08.533, True, 0.663, 0.152667
2023/07/06 16:01:09.037, True, 0.663, 0.152514
2023/07/06 16:01:09.533, True, 1.011, 0.154116
2023/07/06 16:01:10.037, True, 0.663, 0.151598
2023/07/06 16:01:10.541, True, 0.664, 0.151980
2023/07/06 16:01:11.037, True, 1.011, 0.151827
2023/07/06 16:01:11.540, True, 0.663, 0.153277
2023/07/06 16:01:12.045, True, 0.663, 0.153506
2023/07/06 16:01:12.549, True, 0.663, 0.154421
2023/07/06 16:01:13.045, True, 1.011, 0.152514
2023/07/06 16:01:13.549, True, 0.663, 0.154955
2023/07/06 16:01:14.053, True, 0.663, 0.153048
2023/07/06 16:01:14.549, True, 0.675, 0.151827
2023/07/06 16:01:15.053, True, 0.662, 0.150454
2023/07/06 16:01:15.557, True, 0.996, 0.153429
2023/07/06 16:01:16.053, True, 0.673, 0.152209
2023/07/06 16:01:16.557, True, 0.663, 0.153048
2023/07/06 16:01:17.060, True, 0.663, 0.153201
2023/07/06 16:01:17.557, True, 1.011, 0.153201
2023/07/06 16:01:18.061, True, 0.663, 0.154650
2023/07/06 16:01:18.565, True, 0.664, 0.151904
2023/07/06 16:01:19.061, True, 0.673, 0.154726
2023/07/06 16:01:19.565, True, 0.995, 0.151980
2023/07/06 16:01:20.069, True, 0.663, 0.155947
2023/07/06 16:01:20.565, True, 0.674, 0.154269
2023/07/06 16:01:21.069, True, 0.663, 0.152972
2023/07/06 16:01:21.573, True, 0.663, 0.154345
2023/07/06 16:01:22.069, True, 1.011, 0.155871
2023/07/06 16:01:22.573, True, 0.663, 0.154498
2023/07/06 16:01:23.077, True, 0.663, 0.154726
2023/07/06 16:01:23.572, True, 0.674, 0.153964
2023/07/06 16:01:24.077, True, 0.663, 0.153811
2023/07/06 16:01:24.573, True, 1.011, 0.153506
2023/07/06 16:01:25.077, True, 0.664, 0.151064
2023/07/06 16:01:25.581, True, 0.662, 0.156405
2023/07/06 16:01:26.085, True, 0.995, 0.154803
2023/07/06 16:01:26.581, True, 0.674, 0.153887
2023/07/06 16:01:27.085, True, 0.663, 0.155413
2023/07/06 16:01:27.589, True, 0.664, 0.156176
2023/07/06 16:01:28.093, True, 0.662, 0.153353
2023/07/06 16:01:28.589, True, 0.674, 0.155718
2023/07/06 16:01:29.093, True, 0.994, 0.155795
2023/07/06 16:01:29.597, True, 0.664, 0.155795
2023/07/06 16:01:30.093, True, 0.673, 0.154116
2023/07/06 16:01:30.597, True, 0.663, 0.155642
2023/07/06 16:01:31.101, True, 0.664, 0.156939
2023/07/06 16:01:31.597, True, 0.673, 0.157321
2023/07/06 16:01:32.101, True, 0.995, 0.157015
2023/07/06 16:01:32.605, True, 0.663, 0.155261
2023/07/06 16:01:33.101, True, 0.674, 0.156481
2023/07/06 16:01:33.605, True, 0.663, 0.156252
2023/07/06 16:01:34.109, True, 0.663, 0.156176
2023/07/06 16:01:34.605, True, 0.674, 0.155489
2023/07/06 16:01:35.109, True, 0.995, 0.156329
2023/07/06 16:01:35.613, True, 0.663, 0.157626
2023/07/06 16:01:36.109, True, 0.674, 0.156405
2023/07/06 16:01:36.613, True, 0.664, 0.158923
2023/07/06 16:01:37.117, True, 0.663, 0.158465
2023/07/06 16:01:37.613, True, 0.674, 0.157626
2023/07/06 16:01:38.117, True, 0.663, 0.155718
2023/07/06 16:01:38.621, True, 0.995, 0.159380
2023/07/06 16:01:39.117, True, 0.674, 0.159304
2023/07/06 16:01:39.621, True, 0.663, 0.160678
2023/07/06 16:01:40.125, True, 0.663, 0.160067
2023/07/06 16:01:40.621, True, 1.011, 0.158999
2023/07/06 16:01:41.125, True, 0.663, 0.156100
2023/07/06 16:01:41.629, True, 0.663, 0.160449
2023/07/06 16:01:42.125, True, 0.675, 0.158236
2023/07/06 16:01:42.629, True, 0.662, 0.158160
2023/07/06 16:01:43.132, True, 0.663, 0.158236
2023/07/06 16:01:43.628, True, 1.011, 0.155718
2023/07/06 16:01:44.133, True, 0.663, 0.158389
2023/07/06 16:01:44.636, True, 0.663, 0.158312
2023/07/06 16:01:45.133, True, 0.674, 0.158007
2023/07/06 16:01:45.637, True, 0.664, 0.157397
2023/07/06 16:01:46.141, True, 0.662, 0.157702
2023/07/06 16:01:46.637, True, 0.674, 0.158618
2023/07/06 16:01:47.141, True, 0.663, 0.156558
2023/07/06 16:01:47.645, True, 0.996, 0.158770
2023/07/06 16:01:48.141, True, 0.673, 0.157549
2023/07/06 16:01:48.645, True, 0.664, 0.158846
2023/07/06 16:01:49.141, True, 0.673, 0.160220
2023/07/06 16:01:49.645, True, 0.995, 0.157244
2023/07/06 16:01:50.149, True, 0.663, 0.159609
2023/07/06 16:01:50.653, True, 0.664, 0.160983
2023/07/06 16:01:51.149, True, 0.674, 0.160678
2023/07/06 16:01:51.653, True, 0.663, 0.160754
2023/07/06 16:01:52.156, True, 0.663, 0.159304
2023/07/06 16:01:52.652, True, 0.674, 0.161212
2023/07/06 16:01:53.157, True, 0.664, 0.158541
2023/07/06 16:01:53.660, True, 0.993, 0.161135
2023/07/06 16:01:54.156, True, 0.674, 0.159915
2023/07/06 16:01:54.661, True, 0.663, 0.161898
2023/07/06 16:01:55.165, True, 0.663, 0.159686
2023/07/06 16:01:55.660, True, 1.011, 0.159915
2023/07/06 16:01:56.165, True, 0.663, 0.159533
2023/07/06 16:01:56.661, True, 0.674, 0.158618
2023/07/06 16:01:57.165, True, 0.663, 0.160678
2023/07/06 16:01:57.669, True, 0.663, 0.159380
2023/07/06 16:01:58.165, True, 1.011, 0.160449
2023/07/06 16:01:58.669, True, 0.664, 0.159991
2023/07/06 16:01:59.173, True, 0.662, 0.159762
2023/07/06 16:01:59.669, True, 0.674, 0.158999
2023/07/06 16:02:00.172, True, 0.665, 0.159152
2023/07/06 16:02:00.677, True, 0.662, 0.159152
2023/07/06 16:02:01.172, True, 1.011, 0.161517
2023/07/06 16:02:01.677, True, 0.664, 0.159762
2023/07/06 16:02:02.181, True, 0.663, 0.159838
2023/07/06 16:02:02.677, True, 0.673, 0.158770
2023/07/06 16:02:03.181, True, 0.663, 0.161059
2023/07/06 16:02:03.685, True, 0.664, 0.160678
2023/07/06 16:02:04.181, True, 0.674, 0.160678
2023/07/06 16:02:04.685, True, 0.662, 0.161212
2023/07/06 16:02:05.189, True, 0.994, 0.160983
2023/07/06 16:02:05.693, True, 0.664, 0.161746
2023/07/06 16:02:06.189, True, 0.674, 0.158770
2023/07/06 16:02:06.693, True, 0.662, 0.160067
2023/07/06 16:02:07.197, True, 0.664, 0.158465
2023/07/06 16:02:07.692, True, 1.010, 0.161746
2023/07/06 16:02:08.197, True, 0.663, 0.160983
2023/07/06 16:02:08.692, True, 0.674, 0.160296
2023/07/06 16:02:09.197, True, 0.664, 0.160601
2023/07/06 16:02:09.701, True, 0.663, 0.160830
2023/07/06 16:02:10.197, True, 0.675, 0.161440
2023/07/06 16:02:10.701, True, 0.663, 0.160830
2023/07/06 16:02:11.205, True, 0.993, 0.161212
2023/07/06 16:02:11.709, True, 0.663, 0.160754
2023/07/06 16:02:12.205, True, 0.674, 0.160067
2023/07/06 16:02:12.709, True, 0.663, 0.160983
2023/07/06 16:02:13.213, True, 0.663, 0.158083
2023/07/06 16:02:13.709, True, 0.674, 0.161059
2023/07/06 16:02:14.213, True, 0.995, 0.159609
2023/07/06 16:02:14.717, True, 0.664, 0.159991
2023/07/06 16:02:15.213, True, 0.673, 0.162051
2023/07/06 16:02:15.717, True, 0.663, 0.160372
2023/07/06 16:02:16.221, True, 0.663, 0.158160
2023/07/06 16:02:16.717, True, 1.011, 0.160296
2023/07/06 16:02:17.221, True, 0.663, 0.161059
2023/07/06 16:02:17.725, True, 0.663, 0.161288
2023/07/06 16:02:18.221, True, 0.674, 0.160220
2023/07/06 16:02:18.725, True, 0.664, 0.161212
2023/07/06 16:02:19.229, True, 0.994, 0.161135
2023/07/06 16:02:19.725, True, 0.674, 0.161975
2023/07/06 16:02:20.229, True, 0.663, 0.160067
2023/07/06 16:02:20.733, True, 0.663, 0.160296
2023/07/06 16:02:21.229, True, 0.674, 0.159991
2023/07/06 16:02:21.733, True, 0.663, 0.159838
2023/07/06 16:02:22.236, True, 0.994, 0.160372
2023/07/06 16:02:22.732, True, 0.674, 0.161898
2023/07/06 16:02:23.237, True, 0.663, 0.159075
2023/07/06 16:02:23.741, True, 0.663, 0.161135
2023/07/06 16:02:24.237, True, 0.675, 0.161746
2023/07/06 16:02:24.741, True, 0.994, 0.159991
2023/07/06 16:02:25.245, True, 0.664, 0.160449
2023/07/06 16:02:25.741, True, 0.673, 0.162432
2023/07/06 16:02:26.245, True, 0.663, 0.159152
2023/07/06 16:02:26.749, True, 0.663, 0.160983
2023/07/06 16:02:27.245, True, 0.674, 0.160525
2023/07/06 16:02:27.748, True, 0.663, 0.162051
2023/07/06 16:02:28.252, True, 0.664, 0.160678
2023/07/06 16:02:28.757, True, 0.663, 0.160906
2023/07/06 16:02:29.253, True, 0.673, 0.159838
2023/07/06 16:02:29.757, True, 0.995, 0.160067
2023/07/06 16:02:30.261, True, 0.663, 0.160754
2023/07/06 16:02:30.757, True, 0.674, 0.161822
2023/07/06 16:02:31.261, True, 0.663, 0.160220
2023/07/06 16:02:31.765, True, 0.663, 0.159609
2023/07/06 16:02:32.260, True, 1.011, 0.162356
2023/07/06 16:02:32.764, True, 0.663, 0.161288
2023/07/06 16:02:33.269, True, 0.663, 0.160372
2023/07/06 16:02:33.765, True, 1.011, 0.161822
2023/07/06 16:02:34.268, True, 0.663, 0.160296
2023/07/06 16:02:34.773, True, 0.663, 0.161212
2023/07/06 16:02:35.269, True, 0.674, 0.161593
2023/07/06 16:02:35.773, True, 0.663, 0.162585
2023/07/06 16:02:36.277, True, 0.663, 0.160754
2023/07/06 16:02:36.773, True, 1.011, 0.160678
2023/07/06 16:02:37.277, True, 0.663, 0.159457
2023/07/06 16:02:37.781, True, 0.664, 0.159533
2023/07/06 16:02:38.285, True, 0.663, 0.159915
2023/07/06 16:02:38.781, True, 0.674, 0.162356
2023/07/06 16:02:39.285, True, 0.994, 0.160678
2023/07/06 16:02:39.788, True, 0.663, 0.159152
2023/07/06 16:02:40.285, True, 0.674, 0.162203
2023/07/06 16:02:40.789, True, 0.995, 0.163500
2023/07/06 16:02:41.293, True, 0.663, 0.159457
2023/07/06 16:02:41.789, True, 0.674, 0.160525
2023/07/06 16:02:42.293, True, 0.664, 0.159533
2023/07/06 16:02:42.797, True, 0.664, 0.158618
2023/07/06 16:02:43.301, True, 0.662, 0.161212
2023/07/06 16:02:43.797, True, 0.674, 0.159533
2023/07/06 16:02:44.301, True, 0.663, 0.161135
2023/07/06 16:02:44.805, True, 0.996, 0.161212
2023/07/06 16:02:45.309, True, 0.662, 0.162585
2023/07/06 16:02:45.805, True, 0.674, 0.160449
2023/07/06 16:02:46.309, True, 0.663, 0.162051
2023/07/06 16:02:46.813, True, 0.663, 0.160143
2023/07/06 16:02:47.309, True, 0.674, 0.162280
2023/07/06 16:02:47.813, True, 0.994, 0.161059
2023/07/06 16:02:48.316, True, 0.663, 0.162280
2023/07/06 16:02:48.821, True, 0.663, 0.158083
2023/07/06 16:02:49.317, True, 0.673, 0.161288
2023/07/06 16:02:49.821, True, 0.663, 0.160220
2023/07/06 16:02:50.325, True, 0.663, 0.160067
2023/07/06 16:02:50.821, True, 0.674, 0.159533
2023/07/06 16:02:51.325, True, 0.995, 0.161059
2023/07/06 16:02:51.829, True, 0.663, 0.161212
2023/07/06 16:02:52.333, True, 0.663, 0.161669
2023/07/06 16:02:52.829, True, 0.674, 0.159533
2023/07/06 16:02:53.333, True, 0.663, 0.160220
2023/07/06 16:02:53.837, True, 0.663, 0.158312
2023/07/06 16:02:54.333, True, 0.674, 0.160983
2023/07/06 16:02:54.837, True, 0.995, 0.161364
2023/07/06 16:02:55.341, True, 0.663, 0.160983
2023/07/06 16:02:55.837, True, 0.675, 0.159457
2023/07/06 16:02:56.341, True, 0.662, 0.161898
2023/07/06 16:02:56.845, True, 0.663, 0.159228
2023/07/06 16:02:57.341, True, 0.674, 0.161364
2023/07/06 16:02:57.845, True, 0.663, 0.160143
2023/07/06 16:02:58.349, True, 0.995, 0.158923
2023/07/06 16:02:58.845, True, 0.674, 0.161288
2023/07/06 16:02:59.349, True, 0.663, 0.160678
2023/07/06 16:02:59.853, True, 0.663, 0.160983
2023/07/06 16:03:00.356, True, 0.995, 0.161288
2023/07/06 16:03:00.853, True, 0.674, 0.158999
2023/07/06 16:03:01.357, True, 0.663, 0.161364
2023/07/06 16:03:01.861, True, 0.664, 0.160830
2023/07/06 16:03:02.357, True, 0.673, 0.161135
2023/07/06 16:03:02.861, True, 0.663, 0.159838
2023/07/06 16:03:03.365, True, 0.663, 0.161212
2023/07/06 16:03:03.861, True, 0.674, 0.162051
2023/07/06 16:03:04.365, True, 0.663, 0.162051
2023/07/06 16:03:04.869, True, 0.995, 0.161898
2023/07/06 16:03:05.373, True, 0.663, 0.162585
2023/07/06 16:03:05.869, True, 0.674, 0.162051
2023/07/06 16:03:06.373, True, 0.663, 0.160220
2023/07/06 16:03:06.877, True, 0.996, 0.160830
2023/07/06 16:03:07.373, True, 0.673, 0.160830
2023/07/06 16:03:07.877, True, 0.663, 0.161517
2023/07/06 16:03:08.381, True, 0.663, 0.162814
2023/07/06 16:03:08.876, True, 0.675, 0.160906
2023/07/06 16:03:09.381, True, 0.662, 0.161135
2023/07/06 16:03:09.884, True, 0.663, 0.159609
2023/07/06 16:03:10.381, True, 0.674, 0.161364
2023/07/06 16:03:10.885, True, 0.663, 0.162051
2023/07/06 16:03:11.388, True, 0.996, 0.160983
2023/07/06 16:03:11.892, True, 0.662, 0.161212
2023/07/06 16:03:12.389, True, 0.674, 0.161135
2023/07/06 16:03:12.893, True, 0.663, 0.162051
2023/07/06 16:03:13.389, True, 0.675, 0.161517
2023/07/06 16:03:13.893, True, 0.662, 0.161898
2023/07/06 16:03:14.397, True, 0.664, 0.159228
2023/07/06 16:03:14.893, True, 0.673, 0.159152
2023/07/06 16:03:15.396, True, 0.663, 0.160906
2023/07/06 16:03:15.901, True, 0.664, 0.161364
2023/07/06 16:03:16.397, True, 0.673, 0.160830
2023/07/06 16:03:16.900, True, 0.663, 0.161440
2023/07/06 16:03:17.404, True, 0.663, 0.160449
2023/07/06 16:03:17.901, True, 0.674, 0.158465
2023/07/06 16:03:18.405, True, 0.664, 0.159609
2023/07/06 16:03:18.909, True, 0.994, 0.158541
2023/07/06 16:03:19.412, True, 0.664, 0.161517
2023/07/06 16:03:19.909, True, 0.674, 0.162051
2023/07/06 16:03:20.413, True, 0.662, 0.159915
2023/07/06 16:03:20.908, True, 1.011, 0.161059
2023/07/06 16:03:21.413, True, 0.665, 0.161440
2023/07/06 16:03:21.917, True, 0.662, 0.161669
2023/07/06 16:03:22.412, True, 0.674, 0.160296
2023/07/06 16:03:22.917, True, 0.663, 0.160143
2023/07/06 16:03:23.421, True, 0.664, 0.161593
2023/07/06 16:03:23.917, True, 1.009, 0.162509
2023/07/06 16:03:24.421, True, 0.663, 0.161593
2023/07/06 16:03:24.925, True, 0.664, 0.158083
2023/07/06 16:03:25.421, True, 0.674, 0.160296
2023/07/06 16:03:25.925, True, 0.662, 0.161746
2023/07/06 16:03:26.429, True, 0.663, 0.158236
2023/07/06 16:03:26.925, True, 1.011, 0.160372
2023/07/06 16:03:27.429, True, 0.663, 0.161898
2023/07/06 16:03:27.933, True, 0.663, 0.161364
2023/07/06 16:03:28.429, True, 0.674, 0.158236
2023/07/06 16:03:28.933, True, 0.664, 0.160220
2023/07/06 16:03:29.437, True, 0.664, 0.159380
2023/07/06 16:03:29.941, True, 0.662, 0.162432
2023/07/06 16:03:30.437, True, 0.674, 0.160449
2023/07/06 16:03:30.941, True, 0.663, 0.158999
2023/07/06 16:03:31.437, True, 0.674, 0.160830
2023/07/06 16:03:31.941, True, 0.995, 0.160296
2023/07/06 16:03:32.445, True, 0.664, 0.160906
2023/07/06 16:03:32.949, True, 0.663, 0.160372
2023/07/06 16:03:33.445, True, 0.675, 0.160906
2023/07/06 16:03:33.949, True, 0.662, 0.159457
2023/07/06 16:03:34.453, True, 0.663, 0.159915
2023/07/06 16:03:34.949, True, 0.674, 0.161898
2023/07/06 16:03:35.453, True, 0.995, 0.159762
2023/07/06 16:03:35.957, True, 0.663, 0.159686
2023/07/06 16:03:36.453, True, 0.674, 0.160449
2023/07/06 16:03:36.957, True, 0.663, 0.160296
2023/07/06 16:03:37.461, True, 0.995, 0.161822
2023/07/06 16:03:37.957, True, 0.675, 0.161212
2023/07/06 16:03:38.461, True, 0.662, 0.160449
2023/07/06 16:03:38.965, True, 0.663, 0.159533
2023/07/06 16:03:39.469, True, 0.995, 0.158465
2023/07/06 16:03:39.965, True, 0.674, 0.158846
2023/07/06 16:03:40.469, True, 0.663, 0.157397
2023/07/06 16:03:40.973, True, 0.663, 0.158618
2023/07/06 16:03:41.469, True, 0.674, 0.160067
2023/07/06 16:03:41.973, True, 0.663, 0.162585
2023/07/06 16:03:42.477, True, 0.995, 0.160372
2023/07/06 16:03:42.973, True, 0.674, 0.159838
2023/07/06 16:03:43.477, True, 0.663, 0.159075
2023/07/06 16:03:43.981, True, 0.663, 0.160601
2023/07/06 16:03:44.477, True, 0.674, 0.161288
2023/07/06 16:03:44.981, True, 0.995, 0.161059
2023/07/06 16:03:45.485, True, 0.663, 0.159762
2023/07/06 16:03:45.980, True, 0.674, 0.161593
2023/07/06 16:03:46.485, True, 0.663, 0.157092
2023/07/06 16:03:46.989, True, 0.663, 0.160906
2023/07/06 16:03:47.485, True, 0.674, 0.159228
2023/07/06 16:03:47.989, True, 0.995, 0.159915
2023/07/06 16:03:48.493, True, 0.663, 0.161364
2023/07/06 16:03:48.989, True, 0.674, 0.159915
2023/07/06 16:03:49.493, True, 0.663, 0.159380
2023/07/06 16:03:49.997, True, 0.664, 0.158846
2023/07/06 16:03:50.493, True, 0.673, 0.160678
2023/07/06 16:03:50.997, True, 0.663, 0.159380
2023/07/06 16:03:51.501, True, 0.995, 0.156863
2023/07/06 16:03:51.997, True, 0.674, 0.160830
2023/07/06 16:03:52.501, True, 0.663, 0.160525
2023/07/06 16:03:53.005, True, 0.663, 0.159838
2023/07/06 16:03:53.501, True, 1.011, 0.160983
2023/07/06 16:03:54.005, True, 0.663, 0.160372
2023/07/06 16:03:54.509, True, 0.663, 0.160906
2023/07/06 16:03:55.005, True, 0.674, 0.159609
2023/07/06 16:03:55.508, True, 0.663, 0.158999
2023/07/06 16:03:56.013, True, 0.995, 0.158389
2023/07/06 16:03:56.509, True, 0.674, 0.157015
2023/07/06 16:03:57.013, True, 0.663, 0.159228
2023/07/06 16:03:57.517, True, 0.663, 0.159533
2023/07/06 16:03:58.013, True, 0.674, 0.158923
2023/07/06 16:03:58.517, True, 0.663, 0.160525
2023/07/06 16:03:59.021, True, 0.995, 0.159152
2023/07/06 16:03:59.517, True, 0.675, 0.160067
2023/07/06 16:04:00.021, True, 0.662, 0.158236
2023/07/06 16:04:00.525, True, 0.663, 0.160220
2023/07/06 16:04:01.021, True, 0.674, 0.160067
2023/07/06 16:04:01.525, True, 0.663, 0.160601
2023/07/06 16:04:02.029, True, 0.995, 0.160449
2023/07/06 16:04:02.525, True, 0.674, 0.159075
2023/07/06 16:04:03.029, True, 0.663, 0.158083
2023/07/06 16:04:03.525, True, 0.674, 0.160754
2023/07/06 16:04:04.029, True, 0.663, 0.160372
2023/07/06 16:04:04.533, True, 0.663, 0.161059
2023/07/06 16:04:05.037, True, 0.663, 0.161212
2023/07/06 16:04:05.533, True, 0.674, 0.158846
2023/07/06 16:04:06.037, True, 0.995, 0.160601
2023/07/06 16:04:06.533, True, 0.675, 0.158465
2023/07/06 16:04:07.037, True, 0.662, 0.160906
2023/07/06 16:04:07.541, True, 0.663, 0.158770
2023/07/06 16:04:08.037, True, 0.674, 0.157092
2023/07/06 16:04:08.541, True, 0.663, 0.158312
2023/07/06 16:04:09.045, True, 0.995, 0.159915
2023/07/06 16:04:09.549, True, 0.663, 0.160220
2023/07/06 16:04:10.045, True, 0.674, 0.159915
2023/07/06 16:04:10.549, True, 0.663, 0.158923
2023/07/06 16:04:11.053, True, 0.663, 0.159228
2023/07/06 16:04:11.549, True, 0.674, 0.159686
2023/07/06 16:04:12.053, True, 0.663, 0.158618
2023/07/06 16:04:12.557, True, 0.997, 0.160067
2023/07/06 16:04:13.053, True, 0.673, 0.158312
2023/07/06 16:04:13.557, True, 0.664, 0.157549
2023/07/06 16:04:14.061, True, 0.662, 0.158236
2023/07/06 16:04:14.557, True, 0.674, 0.159991